Theta_e
330 330 330 329 329 328 329 329 328 328 326 325 324 323 323 323 323 322 321 320 318 317 317 316 316 315 312 312 310 308 307 306 306 298 298 298 296 294 293 291 291 291 291
329 329 329 329 329 328 329 329 328 328 328 326 325 324 323 323 322 321 320 320 318 317 317 316 315 315 313 311 310 307 306 306 307 297 294 294 294 294 293 292 291 290 290
321 327 328 328 329 328 328 328 328 328 328 328 326 325 323 322 322 321 320 319 318 318 317 317 316 315 312 311 308 307 306 306 305 299 293 292 292 292 290 290 291 291 289
307 309 311 314 319 324 326 327 327 328 328 328 327 325 323 322 322 321 321 319 318 318 318 317 316 315 313 311 309 307 306 304 301 300 296 292 291 290 290 290 288 289 289
300 302 301 303 308 312 317 320 323 324 325 326 326 325 324 323 322 321 321 320 319 318 317 317 316 316 315 315 311 307 305 301 298 295 294 291 289 288 289 291 290 288 288
296 296 298 301 302 303 305 308 311 313 316 318 320 321 322 321 320 320 320 318 318 316 315 315 316 315 315 314 312 310 304 299 297 296 294 293 291 291 294 290 287 286 285
293 293 295 296 298 299 300 301 303 305 307 308 309 310 312 313 314 314 314 313 313 313 313 313 312 312 311 310 308 306 303 302 303 298 294 294 291 293 297 290 287 288 288
290 290 292 294 294 296 297 297 298 299 300 302 304 305 307 308 307 307 308 308 309 308 307 307 307 307 306 304 302 302 300 298 299 297 296 298 300 298 298 294 289 287 287
289 290 291 292 293 294 294 294 295 296 297 298 300 301 302 305 305 305 303 305 303 303 305 304 302 301 300 299 298 296 295 294 295 295 298 302 301 299 296 290 287 286 284
288 289 290 291 291 291 291 292 293 293 294 295 296 298 299 300 300 302 301 300 301 301 301 300 299 297 297 296 295 294 292 292 293 293 293 295 294 292 292 290 289 287 288
288 288 288 289 289 289 290 291 291 292 292 292 293 294 295 296 297 298 298 297 297 298 298 297 298 296 295 295 294 293 292 291 290 290 289 289 288 289 288 287 289 294 292
288 287 288 287 287 287 288 288 289 289 290 290 290 291 291 293 294 295 295 295 295 295 295 295 294 295 294 293 292 292 292 291 289 287 286 285 287 286 286 287 288 290 290
287 286 286 286 286 286 287 287 288 288 289 289 289 289 290 290 291 292 293 294 294 294 293 293 293 293 292 291 290 290 290 289 287 286 285 284 284 286 285 285 286 286 285
287 287 286 285 286 286 286 287 287 288 287 286 286 286 287 288 289 290 290 292 293 293 292 292 292 291 290 290 289 288 289 288 287 286 285 285 285 285 284 285 283 282 282
287 287 286 285 284 284 285 286 286 286 286 286 285 284 285 285 286 289 290 291 292 291 291 290 289 290 289 288 287 287 287 287 286 285 285 284 284 284 283 283 282 281 281
287 285 285 284 284 283 284 285 285 285 285 284 283 283 283 284 285 288 291 292 291 290 290 289 288 288 287 287 286 286 286 286 286 286 286 286 283 282 281 281 281 281 281
285 284 285 284 283 283 284 284 284 286 285 283 281 281 280 282 282 286 289 290 289 288 289 289 289 288 287 286 286 286 286 286 286 285 283 282 282 281 281 280 280 280 279
285 285 285 282 282 282 283 282 282 281 280 279 283 281 283 281 281 285 286 287 286 286 286 287 288 288 287 286 286 286 285 284 284 283 282 281 281 280 280 279 279 279 278
284 283 283 282 282 281 281 281 280 279 278 276 276 279 281 280 280 282 282 279 276 277 280 283 284 285 285 285 284 284 284 283 282 282 281 281 281 281 279 279 279 278 277
284 282 282 281 280 280 280 279 279 278 277 275 275 276 277 279 277 275 275 275 275 275 275 276 278 280 281 282 282 282 281 282 282 281 281 281 280 281 279 278 278 276 275
281 281 281 281 279 279 278 278 277 276 275 275 274 275 274 275 273 273 274 274 274 275 275 275 276 277 278 278 279 280 280 279 280 280 280 280 279 278 278 277 275 274 273
280 280 280 280 279 278 278 277 276 275 274 274 274 274 273 274 273 273 273 273 273 274 275 276 276 277 278 278 279 279 279 279 278 279 278 277 277 277 275 273 272 271 271
281 281 281 280 279 278 277 276 276 275 274 274 274 274 273 272 272 271 272 272 273 274 274 275 275 275 276 277 277 278 278 277 278 278 277 276 274 273 272 271 271 270 270
281 280 280 280 279 278 277 276 276 275 274 273 273 273 272 272 272 272 272 272 273 273 273 274 273 274 275 275 276 276 276 275 275 274 274 273 272 271 271 271 270 270 270
280 280 279 279 278 277 276 276 275 274 274 273 273 272 272 272 272 272 272 272 271 271 271 271 271 271 271 272 272 272 272 272 272 272 272 272 271 271 271 270 270 270 269
278 278 278 277 276 276 275 275 274 273 273 272 272 272 272 272 271 271 271 270 270 270 270 271 271 271 271 271 271 271 271 271 272 271 271 271 271 270 270 270 269 269 269
Wind_Speed
29 30 32 33 33 30 30 34 37 32 36 38 40 43 43 43 43 43 43 40 40 41 41 44 47 46 41 44 42 39 37 33 19 14 26 28 24 28 32 30 26 27 24
28 27 28 27 30 29 30 32 33 34 36 38 40 42 43 43 43 43 42 40 41 41 42 43 44 45 45 40 42 40 39 43 32 19 23 23 21 26 30 30 29 28 25
7 17 20 22 23 26 29 30 31 34 35 36 36 39 40 42 42 42 43 43 42 43 45 45 45 40 41 39 39 38 41 39 39 27 19 24 24 27 28 27 28 28 27
21 20 18 15 7 8 17 24 30 33 36 35 37 35 36 37 40 42 43 42 42 42 42 41 41 40 39 39 43 44 40 38 35 34 31 31 27 27 29 28 26 29 29
32 33 28 24 20 15 7 5 9 15 28 34 35 36 36 37 37 38 40 41 42 41 43 44 44 45 50 52 48 45 39 34 25 22 24 20 25 24 27 27 27 27 26
32 30 29 29 28 26 23 19 14 10 9 10 13 18 26 30 31 35 39 39 40 41 38 40 48 48 50 52 54 45 41 36 34 32 29 26 29 31 31 29 23 15 8
28 30 32 31 29 27 25 24 22 20 17 15 13 12 12 14 18 21 23 27 33 35 40 41 41 43 45 45 45 44 41 44 42 44 36 38 31 38 33 31 30 24 12
30 30 30 30 30 29 28 27 25 24 22 19 19 17 15 15 17 17 18 21 24 29 31 36 38 36 35 33 36 35 39 41 40 38 42 46 41 35 33 37 36 27 17
32 31 30 29 28 28 28 27 27 27 26 24 22 20 19 21 21 21 20 19 21 24 20 24 28 26 27 25 28 29 30 30 33 34 36 33 26 27 35 31 30 30 8
28 27 26 26 25 25 24 25 25 23 25 24 24 22 22 22 20 21 20 20 21 21 21 23 19 21 21 19 27 29 27 30 31 27 23 22 24 24 23 30 36 28 12
25 25 25 23 22 20 21 24 24 25 25 25 26 25 22 21 23 22 20 19 21 23 23 23 19 18 19 18 24 30 29 32 31 32 31 28 26 25 26 27 29 28 22
25 27 26 25 23 22 20 21 22 23 21 22 24 23 24 27 24 22 22 18 17 20 20 20 19 16 16 17 24 27 26 36 34 31 29 29 29 27 25 24 23 19 16
25 25 26 26 25 24 21 23 21 22 21 21 22 23 25 26 27 27 23 21 16 16 16 15 13 14 11 14 20 21 30 34 31 26 23 23 29 30 27 22 19 17 15
28 29 28 27 27 27 23 22 22 24 23 23 24 25 27 26 27 28 29 25 17 12 14 11 6 1 10 18 16 27 27 29 27 24 24 26 27 28 27 26 24 22 22
26 28 29 28 26 19 21 21 20 22 22 22 22 23 26 28 34 32 26 23 16 13 10 4 5 11 13 17 20 20 21 25 25 25 27 27 27 28 26 24 25 25 15
25 27 26 26 25 20 22 20 19 19 20 22 24 24 26 27 33 34 24 14 10 8 4 3 7 11 14 15 17 18 19 23 25 24 25 30 28 26 25 23 23 21 19
22 23 23 25 23 22 21 22 26 30 26 27 29 28 27 26 29 27 25 16 11 6 7 2 7 11 15 18 20 21 20 21 25 28 27 26 28 27 27 24 23 21 19
16 19 19 17 20 18 18 18 18 19 22 30 32 32 30 28 28 25 19 16 20 18 16 11 7 9 13 15 15 16 20 21 22 24 26 27 28 28 26 24 23 22 21
13 17 16 14 14 14 14 15 14 16 16 20 27 30 29 26 26 25 24 26 23 24 19 15 12 11 12 15 19 22 24 24 26 27 27 27 26 26 24 23 21 19 19
10 13 14 12 11 12 13 13 12 13 13 17 22 23 26 28 32 31 30 27 25 22 19 17 15 13 12 15 19 21 24 25 26 27 27 26 25 24 24 21 20 19 16
9 10 12 12 12 13 10 12 11 12 16 17 19 19 18 24 25 26 27 27 26 23 21 19 18 17 17 17 20 23 24 24 25 25 24 23 21 21 19 18 18 17 17
8 9 9 10 9 10 11 10 9 10 12 16 17 18 18 21 21 21 22 22 21 20 19 19 20 19 18 18 19 21 22 23 21 21 21 20 19 19 18 18 17 16 15
7 8 9 10 10 9 9 11 13 12 12 13 14 16 18 18 18 18 19 19 19 19 19 19 19 19 17 17 16 17 18 18 18 17 19 19 19 18 17 17 15 14 13
7 7 7 8 8 9 10 10 10 10 11 11 12 13 14 14 14 15 16 16 17 18 19 20 20 19 17 17 17 16 16 16 16 16 16 17 17 16 15 14 13 11 10
5 6 6 6 6 6 7 7 7 8 8 9 9 9 10 10 10 12 13 13 14 16 17 17 17 17 17 16 15 15 14 14 14 14 14 14 13 12 12 11 9 8 7
6 6 6 5 5 5 6 5 4 4 5 6 6 6 6 7 8 9 10 10 10 12 13 14 14 14 13 13 13 12 12 12 12 12 11 10 10 10 8 7 5 5 4
Wind_Direction
210 206 208 202 211 219 225 229 232 232 225 222 224 224 222 222 222 221 223 224 223 226 227 227 229 231 226 231 229 223 218 213 213 197 204 202 204 220 223 222 222 224 222
214 211 210 204 206 216 227 233 235 235 234 228 227 224 224 224 225 223 225 226 226 227 226 228 229 228 229 226 226 220 217 216 215 184 189 178 191 211 222 217 219 224 226
26 230 215 216 215 221 228 237 240 240 242 236 230 227 223 227 228 228 229 229 229 231 232 230 231 227 223 220 219 219 218 218 216 195 170 178 177 199 209 212 218 224 227
55 59 55 48 53 229 237 246 245 242 244 244 235 233 230 231 233 233 231 232 234 236 239 238 237 233 228 222 223 224 221 215 205 191 174 173 178 189 201 205 212 218 225
47 50 45 43 43 38 14 302 273 260 251 249 247 240 241 234 234 236 237 236 237 238 240 240 239 239 239 236 227 226 219 210 191 174 173 166 165 168 189 205 215 218 221
47 42 40 37 36 36 32 30 21 354 320 280 255 247 245 243 243 244 244 243 243 242 240 241 243 243 243 242 240 234 220 195 192 186 179 172 175 185 190 205 196 187 195
43 37 35 32 29 26 19 17 18 12 6 4 356 336 312 290 275 270 268 270 265 257 253 249 248 250 249 245 238 232 227 219 223 201 184 176 170 193 190 201 197 193 186
36 31 27 25 22 19 16 12 3 359 355 354 350 346 337 328 322 308 293 283 274 273 274 272 266 263 265 259 246 233 223 215 220 209 196 186 190 190 207 212 203 186 173
29 27 25 23 22 15 11 7 6 358 350 347 345 338 335 332 328 325 320 310 295 285 282 272 268 273 270 261 240 216 207 206 203 198 200 190 184 197 209 197 182 167 150
27 26 25 25 23 17 13 10 7 359 356 354 346 348 344 332 333 329 321 312 299 292 288 279 272 268 265 260 225 209 188 191 192 179 170 167 183 190 202 208 190 170 149
28 29 31 31 28 23 22 20 13 11 9 6 358 357 352 349 344 344 336 311 295 292 288 286 290 277 269 250 224 219 203 191 175 169 161 163 169 174 186 188 190 195 179
32 31 30 29 27 22 20 14 14 10 4 1 357 353 354 354 351 351 345 330 305 285 292 296 302 296 272 241 218 216 199 180 171 161 155 158 166 168 171 173 176 186 193
33 31 30 31 32 31 20 14 11 10 6 2 358 349 343 343 345 348 346 345 319 286 284 296 311 310 266 220 205 194 178 168 158 151 150 155 168 175 171 166 169 173 166
31 29 28 28 28 31 28 23 20 18 17 12 6 358 350 347 343 337 333 335 337 289 290 306 312 277 206 191 172 169 172 167 158 152 148 159 174 171 170 175 165 160 150
31 27 26 25 25 21 27 28 26 26 23 15 8 360 353 351 345 338 328 323 330 316 304 301 162 157 162 160 161 166 166 161 154 156 157 162 168 173 175 176 173 164 160
26 20 21 19 20 20 16 13 29 26 25 22 17 12 2 356 354 358 347 340 340 331 296 213 161 154 151 151 145 145 159 155 157 165 172 175 167 159 157 169 167 162 161
26 16 15 18 15 12 12 12 3 13 23 26 19 13 11 5 7 11 15 23 31 16 23 107 148 157 152 155 158 165 162 168 172 166 157 150 154 154 156 154 154 159 149
26 24 18 15 15 13 11 11 11 10 2 359 22 15 16 15 16 20 27 38 36 43 50 55 94 140 145 155 160 157 139 139 142 145 143 149 150 149 146 149 156 156 156
25 21 18 19 16 21 19 18 15 14 13 6 10 19 26 36 38 42 40 44 30 24 35 56 72 98 122 137 138 136 139 139 139 139 140 145 150 154 150 157 158 162 162
28 22 23 22 20 18 20 22 20 22 20 19 24 13 18 38 43 43 46 47 46 43 39 48 65 88 106 129 135 138 136 139 140 140 141 146 150 155 154 155 156 154 156
20 17 22 23 29 24 25 20 19 16 24 30 28 30 25 44 46 50 47 47 47 50 54 56 68 82 99 113 123 127 133 132 132 135 137 140 145 145 148 150 151 151 149
17 11 14 20 27 30 29 32 38 38 32 30 28 32 34 42 44 49 51 51 53 55 59 65 67 77 90 102 114 121 122 125 134 134 132 137 140 141 145 144 142 144 142
5 3 8 12 15 20 23 26 32 37 35 35 35 36 36 40 40 43 50 54 55 61 63 67 71 72 79 91 102 113 117 121 125 134 138 139 135 139 142 138 135 143 143
359 356 358 359 1 6 14 17 19 23 24 27 30 40 42 42 44 46 50 56 63 64 67 69 68 71 76 82 90 98 107 117 125 127 129 129 135 138 135 133 139 142 134
344 338 340 345 350 351 352 360 6 12 16 20 23 32 46 53 54 57 61 63 68 73 75 76 77 77 78 82 89 95 100 108 114 117 120 129 131 129 128 135 138 139 150
315 312 308 309 311 318 321 325 341 356 15 22 33 39 45 64 62 71 76 75 76 80 83 84 82 81 82 83 86 93 101 105 108 112 118 124 126 125 124 128 144 160 179